FW0475 Weather Reports


Display with metric or nautical units.
time (UTC)temp
F
wind
direction
speed
MPH
gust
MPH
rain 1hr
in
rain 24hr
in
rain mn
in
humidity
%
barometer
mb
20260508153353 50 145 3.0 9.0 0.00 0.00 0.00 64 1011.7
20260508152828 49 243 2.0 7.0 0.00 0.00 0.00 64 1011.8
20260508152323 49 196 3.0 7.0 0.00 0.00 0.00 64 1011.7
20260508151832 49 209 3.0 7.0 0.00 0.00 0.00 64 1011.8
20260508151319 49 168 3.0 7.0 0.00 0.00 0.00 64 1011.8
20260508150834 49 242 3.0 7.0 0.00 0.00 0.00 65 1011.8
20260508150328 49 259 2.0 10.0 0.00 0.00 0.00 66 1011.8
20260508145822 48 175 3.0 10.0 0.00 0.00 0.00 64 1011.7
20260508145314 49 232 4.0 9.0 0.00 0.00 0.00 63 1011.8
20260508144849 49 205 3.0 7.0 0.00 0.00 0.00 62 1011.8
20260508144326 49 210 3.0 7.0 0.00 0.00 0.00 63 1011.8
20260508143840 49 197 3.0 8.0 0.00 0.00 0.00 63 1011.8
20260508143335 49 209 5.0 8.0 0.00 0.00 0.00 62 1011.7
20260508142825 49 202 3.0 9.0 0.00 0.00 0.00 62 1011.8
20260508142350 49 185 4.0 9.0 0.00 0.00 0.00 62 1011.7
20260508141826 49 194 2.0 8.0 0.00 0.00 0.00 62 1011.7
20260508141339 48 213 2.0 8.0 0.00 0.00 0.00 62 1011.7
20260508140834 48 196 4.0 7.0 0.00 0.00 0.00 61 1011.7
20260508140328 48 221 3.0 6.0 0.00 0.00 0.00 61 1011.7
20260508135822 48 197 3.0 6.0 0.00 0.00 0.00 61 1011.7
20260508135355 48 264 3.0 6.0 0.00 0.00 0.00 61 1011.8
20260508134819 48 213 2.0 7.0 0.00 0.00 0.00 61 1011.8
20260508134335 48 239 3.0 9.0 0.00 0.00 0.00 61 1011.7
20260508133819 48 160 3.0 9.0 0.00 0.00 0.00 61 1011.7
20260508133326 48 218 3.0 7.0 0.00 0.00 0.00 61 1011.7
20260508132842 48 197 1.0 6.0 0.00 0.00 0.00 62 1011.7
20260508132328 47 206 3.0 7.0 0.00 0.00 0.00 62 1011.8
20260508131824 47 216 2.0 7.0 0.00 0.00 0.00 62 1011.8
20260508131340 47 201 3.0 6.0 0.00 0.00 0.00 62 1011.8
20260508130826 47 219 3.0 6.0 0.00 0.00 0.00 62 1011.7
20260508130319 47 207 3.0 6.0 0.00 0.00 0.00 62 1011.8
20260508125834 47 211 3.0 5.0 0.00 0.00 0.00 63 1011.8
20260508125339 47 202 3.0 5.0 0.00 0.00 0.00 63 1011.8
20260508124826 46 190 1.0 6.0 0.00 0.00 0.00 63 1011.9
20260508124341 46 148 2.0 6.0 0.00 0.00 0.00 65 1011.9
20260508123827 45 215 1.0 4.0 0.00 0.00 0.00 68 1011.9
20260508123320 45 227 0.0 5.0 0.00 0.00 0.00 74 1011.9
20260508122816 44 203 1.0 5.0 0.00 0.00 0.00 77 1012.0
20260508122349 43 306 0.0 2.0 0.00 0.00 0.00 78 1011.8
20260508121842 43 230 0.0 2.0 0.00 0.00 0.00 79 1011.8
20260508121349 42 238 0.0 2.0 0.00 0.00 0.00 79 1011.8
20260508120832 41 284 0.0 1.0 0.00 0.00 0.00 79 1011.8
20260508120339 41 291 0.0 2.0 0.00 0.00 0.00 79 1011.7
20260508115824 40 70 1.0 2.0 0.00 0.00 0.00 79 1011.6
20260508115355 40 69 1.0 2.0 0.00 0.00 0.00 79 1011.6
20260508114823 39 69 1.0 2.0 0.00 0.00 0.00 79 1011.6
20260508114314 39 70 1.0 2.0 0.00 0.00 0.00 79 1011.5
20260508113849 39 71 1.0 3.0 0.00 0.00 0.00 79 1011.5
20260508113326 38 69 2.0 3.0 0.00 0.00 0.00 79 1011.3
20260508112823 38 71 2.0 3.0 0.00 0.00 0.00 78 1011.4
20260508112321 38 71 1.0 3.0 0.00 0.00 0.00 79 1011.3
20260508111816 38 69 2.0 3.0 0.00 0.00 0.00 78 1011.3
20260508111335 37 69 3.0 3.0 0.00 0.00 0.00 77 1011.3
20260508110823 37 67 2.0 3.0 0.00 0.00 0.00 77 1011.2
20260508110335 37 68 3.0 3.0 0.00 0.00 0.00 76 1011.1
20260508105826 37 71 2.0 3.0 0.00 0.00 0.00 75 1011.2
20260508105339 37 72 2.0 3.0 0.00 0.00 0.00 76 1011.2
20260508104825 37 70 2.0 3.0 0.00 0.00 0.00 76 1011.2
20260508104321 37 71 2.0 3.0 0.00 0.00 0.00 75 1011.2
20260508103833 37 69 2.0 3.0 0.00 0.00 0.00 75 1011.2
20260508103322 37 67 2.0 3.0 0.00 0.00 0.00 74 1011.3
20260508102816 37 65 2.0 3.0 0.00 0.00 0.00 73 1011.1
20260508102331 38 64 2.0 3.0 0.00 0.00 0.00 73 1011.2
20260508101844 38 61 2.0 3.0 0.00 0.00 0.00 73 1011.3
20260508101330 38 67 2.0 3.0 0.00 0.00 0.00 73 1011.3
20260508100826 38 64 3.0 3.0 0.00 0.00 0.00 73 1011.2
20260508100342 38 68 2.0 3.0 0.00 0.00 0.00 73 1011.3
20260508095835 38 67 2.0 3.0 0.00 0.00 0.00 73 1011.3
20260508095328 38 67 2.0 3.0 0.00 0.00 0.00 72 1011.4
20260508094824 38 67 2.0 3.0 0.00 0.00 0.00 73 1011.5
20260508094321 38 69 2.0 3.0 0.00 0.00 0.00 73 1011.4
20260508093836 38 65 2.0 3.0 0.00 0.00 0.00 73 1011.5
20260508093329 38 68 2.0 3.0 0.00 0.00 0.00 73 1011.6
20260508092816 38 70 2.0 3.0 0.00 0.00 0.00 72 1011.5
20260508092348 39 69 2.0 3.0 0.00 0.00 0.00 73 1011.5
20260508091833 39 64 2.0 3.0 0.00 0.00 0.00 73 1011.5
20260508091328 39 67 1.0 3.0 0.00 0.00 0.00 73 1011.6
20260508090819 39 69 2.0 3.0 0.00 0.00 0.00 72 1011.6
20260508090333 39 68 2.0 3.0 0.00 0.00 0.00 71 1011.7
20260508085818 39 71 2.0 3.0 0.00 0.00 0.00 70 1011.8
20260508085354 39 65 2.0 3.0 0.00 0.00 0.00 70 1011.8
20260508084829 39 65 2.0 2.0 0.00 0.00 0.00 70 1011.8
20260508084324 39 65 2.0 3.0 0.00 0.00 0.00 70 1011.8
20260508083838 39 65 2.0 3.0 0.00 0.00 0.00 69 1011.8
20260508083328 39 65 2.0 3.0 0.00 0.00 0.00 69 1011.7
20260508082821 39 65 2.0 2.0 0.00 0.00 0.00 69 1011.9
20260508082318 39 65 2.0 3.0 0.00 0.00 0.00 68 1011.9
20260508081853 39 64 2.0 3.0 0.00 0.00 0.00 68 1011.9
20260508081328 39 55 2.0 3.0 0.00 0.00 0.00 67 1012.0
20260508080822 39 67 2.0 3.0 0.00 0.00 0.00 66 1012.0
20260508080338 39 63 2.0 3.0 0.00 0.00 0.00 66 1012.0
20260508075829 39 57 2.0 3.0 0.00 0.00 0.00 66 1011.9
20260508075338 39 54 2.0 2.0 0.00 0.00 0.00 66 1011.9
20260508074824 39 55 2.0 2.0 0.00 0.00 0.00 66 1012.0
20260508074321 39 53 2.0 2.0 0.00 0.00 0.00 66 1012.0
20260508073849 39 53 2.0 2.0 0.00 0.00 0.00 66 1012.0
20260508073320 39 53 2.0 2.0 0.00 0.00 0.00 65 1012.0
20260508072836 40 47 1.0 2.0 0.00 0.00 0.00 65 1012.1
20260508072329 40 47 1.0 2.0 0.00 0.00 0.00 66 1012.1
20260508071845 40 52 1.0 3.0 0.00 0.00 0.00 66 1012.1
20260508071358 40 67 2.0 3.0 0.00 0.00 0.00 65 1012.1
20260508070848 40 70 2.0 3.0 0.00 0.00 0.00 64 1012.1
20260508070322 40 46 1.0 3.0 0.00 0.00 0.00 64 1012.1
20260508065816 40 62 1.0 3.0 0.00 0.00 0.00 64 1012.2
20260508065332 40 69 3.0 3.0 0.00 0.00 0.00 64 1012.2
20260508064849 40 71 1.0 2.0 0.00 0.00 0.00 63 1012.3
20260508064324 40 71 1.0 3.0 0.00 0.00 0.00 63 1012.3
20260508063851 40 71 2.0 3.0 0.00 0.00 0.00 63 1012.4
20260508063321 41 71 2.0 3.0 0.00 0.00 0.00 63 1012.3
20260508062831 41 69 2.0 3.0 0.00 0.00 0.00 63 1012.4
20260508062323 41 69 2.0 3.0 0.00 0.00 0.00 63 1012.3
20260508061833 41 69 2.0 3.0 0.00 0.00 0.00 63 1012.4
20260508061330 41 69 2.0 3.0 0.00 0.00 0.00 64 1012.4
20260508060826 41 69 2.0 3.0 0.00 0.00 0.00 63 1012.5
20260508060341 41 67 2.0 3.0 0.00 0.00 0.00 64 1012.5
20260508055825 41 74 3.0 3.0 0.00 0.00 0.00 63 1012.6
20260508055318 41 70 2.0 3.0 0.00 0.00 0.00 64 1012.6
20260508054851 41 71 3.0 3.0 0.00 0.00 0.00 64 1012.6
20260508054324 41 73 3.0 3.0 0.00 0.00 0.00 64 1012.5
20260508053837 41 67 3.0 3.0 0.00 0.00 0.00 64 1012.5
20260508053327 42 70 3.0 3.0 0.00 0.00 0.00 64 1012.5
20260508052841 42 69 3.0 3.0 0.00 0.00 0.00 64 1012.5
20260508052331 42 70 2.0 3.0 0.00 0.00 0.00 64 1012.6
20260508051825 42 70 2.0 3.0 0.00 0.00 0.00 64 1012.4
20260508051342 42 71 3.0 3.0 0.00 0.00 0.00 64 1012.6
20260508050833 42 71 3.0 3.0 0.00 0.00 0.00 64 1012.6
20260508050329 42 68 2.0 3.0 0.00 0.00 0.00 64 1012.6
20260508045832 42 72 2.0 3.0 0.00 0.00 0.00 64 1012.5
20260508045326 42 69 2.0 3.0 0.00 0.00 0.00 63 1012.4
20260508044822 42 70 2.0 3.0 0.00 0.00 0.00 63 1012.4
20260508044316 42 65 2.0 3.0 0.00 0.00 0.00 62 1012.5
20260508043831 42 65 2.0 3.0 0.00 0.00 0.00 62 1012.5
20260508043326 42 66 2.0 3.0 0.00 0.00 0.00 62 1012.5
20260508042834 42 69 2.0 3.0 0.00 0.00 0.00 62 1012.5
20260508042330 42 63 2.0 3.0 0.00 0.00 0.00 61 1012.6
20260508041841 42 57 2.0 3.0 0.00 0.00 0.00 61 1012.6
20260508041346 42 65 2.0 3.0 0.00 0.00 0.00 61 1012.6
20260508040817 42 61 2.0 3.0 0.00 0.00 0.00 61 1012.6
20260508040333 42 59 1.0 2.0 0.00 0.00 0.00 61 1012.7
20260508035840 42 59 1.0 2.0 0.00 0.00 0.00 61 1012.6
20260508035326 42 58 1.0 2.0 0.00 0.00 0.00 61 1012.6
20260508034840 42 57 1.0 2.0 0.00 0.00 0.00 61 1012.5
20260508034331 43 58 1.0 2.0 0.00 0.00 0.00 61 1012.3
20260508033819 43 55 1.0 2.0 0.00 0.00 0.00 62 1012.3
20260508033354 43 54 1.0 2.0 0.00 0.00 0.00 62 1012.3
20260508032827 43 55 1.0 2.0 0.00 0.00 0.00 62 1012.3
20260508032325 43 59 1.0 2.0 0.00 0.00 0.00 61 1012.3
20260508031819 43 55 1.0 2.0 0.00 0.00 0.00 60 1012.2
20260508031334 43 53 2.0 2.0 0.00 0.00 0.00 59 1012.4
20260508030826 43 53 1.0 2.0 0.00 0.00 0.00 58 1012.4
20260508030338 43 37 1.0 2.0 0.00 0.00 0.00 57 1012.3
20260508025844 43 5 1.0 2.0 0.00 0.00 0.00 56 1012.4
20260508025315 43 5 1.0 2.0 0.00 0.00 0.00 56 1012.4
20260508024832 43 360 2.0 2.0 0.00 0.00 0.00 55 1012.4
20260508024329 44 360 1.0 2.0 0.00 0.00 0.00 55 1012.4
20260508023838 44 355 1.0 2.0 0.00 0.00 0.00 55 1012.4
20260508023349 44 355 1.0 2.0 0.00 0.00 0.00 55 1012.4
20260508022820 44 355 1.0 2.0 0.00 0.00 0.00 56 1012.4
20260508022334 44 355 2.0 2.0 0.00 0.00 0.00 56 1012.3
20260508021828 44 342 1.0 2.0 0.00 0.00 0.00 56 1012.4
20260508021317 44 335 1.0 2.0 0.00 0.00 0.00 56 1012.3
20260508020827 44 335 0.0 1.0 0.00 0.00 0.00 57 1012.3
20260508020332 44 335 0.0 2.0 0.00 0.00 0.00 56 1012.2
20260508015829 44 335 1.0 2.0 0.00 0.00 0.00 56 1012.1
20260508015344 44 335 1.0 2.0 0.00 0.00 0.00 58 1012.1
20260508014833 44 335 1.0 2.0 0.00 0.00 0.00 59 1012.0
20260508014330 45 335 1.0 2.0 0.00 0.00 0.00 58 1011.8
20260508013842 45 335 1.0 2.0 0.00 0.00 0.00 59 1011.7
20260508013339 45 309 1.0 2.0 0.00 0.00 0.00 59 1011.6
20260508012822 46 304 1.0 1.0 0.00 0.00 0.00 59 1011.5
20260508012317 46 302 1.0 1.0 0.00 0.00 0.00 58 1011.6
20260508011834 47 286 1.0 1.0 0.00 0.00 0.00 57 1011.5
20260508011328 47 286 1.0 1.0 0.00 0.00 0.00 56 1011.5
20260508010831 48 286 0.0 0.0 0.00 0.00 0.00 55 1011.6
20260508010327 48 286 0.0 1.0 0.00 0.00 0.00 55 1011.6
20260508005835 48 286 0.0 1.0 0.00 0.00 0.00 54 1011.4
20260508005328 48 286 0.0 1.0 0.00 0.00 0.00 54 1011.4
20260508004817 49 286 0.0 0.0 0.00 0.00 0.00 55 1011.4
20260508004333 49 286 0.0 0.0 0.00 0.00 0.00 54 1011.4
20260508003826 49 286 0.0 0.0 0.00 0.00 0.00 54 1011.3
20260508003323 49 286 0.0 1.0 0.00 0.00 0.00 53 1011.4
20260508002837 49 286 0.0 1.0 0.00 0.00 0.00 53 1011.3
20260508002332 49 286 0.0 2.0 0.00 0.00 0.00 53 1011.3
20260508001827 49 286 1.0 2.0 0.00 0.00 0.00 53 1011.3
20260508001343 49 286 1.0 1.0 0.00 0.00 0.00 52 1011.3
20260508000833 49 286 0.0 2.0 0.00 0.00 0.00 53 1011.3
20260508000322 49 286 1.0 2.0 0.00 0.00 0.00 53 1011.3
20260507235817 48 286 1.0 2.0 0.00 0.00 0.00 53 1011.4
20260507235333 48 284 1.0 3.0 0.00 0.00 0.00 52 1011.4
20260507234846 48 287 1.0 3.0 0.00 0.00 0.00 51 1011.5
20260507234320 48 279 2.0 3.0 0.00 0.00 0.00 51 1011.6
20260507233836 48 269 2.0 3.0 0.00 0.00 0.00 51 1011.6
20260507233327 48 265 1.0 2.0 0.00 0.00 0.00 52 1011.7
20260507232833 48 278 2.0 3.0 0.00 0.00 0.00 51 1011.8
20260507232346 48 269 2.0 3.0 0.00 0.00 0.00 49 1011.9
20260507231829 49 277 2.0 3.0 0.00 0.00 0.00 47 1011.9
20260507231323 49 292 2.0 3.0 0.00 0.00 0.00 48 1012.0
20260507230817 49 261 2.0 3.0 0.00 0.00 0.00 46 1012.0
20260507230333 49 263 2.0 3.0 0.00 0.00 0.00 46 1012.0
20260507225841 49 273 2.0 3.0 0.00 0.00 0.00 47 1012.0
20260507225349 48 244 1.0 2.0 0.00 0.00 0.00 48 1012.1
20260507224821 48 246 1.0 3.0 0.00 0.00 0.00 46 1012.1
20260507224338 48 281 2.0 3.0 0.00 0.00 0.00 47 1012.1
20260507223832 48 219 2.0 4.0 0.00 0.00 0.00 44 1012.2
20260507223341 47 236 1.0 5.0 0.00 0.00 0.00 47 1012.3
20260507222845 46 217 2.0 5.0 0.00 0.00 0.00 47 1012.4
20260507222316 46 220 2.0 5.0 0.00 0.00 0.00 49 1012.5
20260507221855 46 194 2.0 6.0 0.00 0.00 0.00 52 1012.5
20260507221350 46 206 4.0 7.0 0.00 0.00 0.00 49 1012.7
20260507220845 47 231 3.0 7.0 0.00 0.00 0.00 49 1012.6
20260507220319 47 215 5.0 7.0 0.00 0.00 0.00 48 1012.7
20260507215835 47 227 4.0 8.0 0.00 0.00 0.00 50 1012.8
20260507215329 47 223 4.0 6.0 0.00 0.00 0.00 48 1012.6
20260507214817 47 214 4.0 6.0 0.00 0.00 0.00 47 1012.6
20260507214359 48 220 4.0 5.0 0.00 0.00 0.00 46 1012.6
20260507213827 48 226 3.0 5.0 0.00 0.00 0.00 46 1012.5
20260507213322 48 211 3.0 6.0 0.00 0.00 0.00 47 1012.5
20260507212837 47 216 4.0 6.0 0.00 0.00 0.00 46 1012.6
20260507212325 48 212 4.0 6.0 0.00 0.00 0.00 46 1012.5
20260507211832 49 208 3.0 6.0 0.00 0.00 0.00 46 1012.4
20260507211329 48 241 3.0 6.0 0.00 0.00 0.00 49 1012.3
20260507210820 48 230 3.0 8.0 0.00 0.00 0.00 48 1012.6
20260507210355 47 273 4.0 8.0 0.00 0.00 0.00 50 1012.8
20260507205840 46 197 4.0 9.0 0.00 0.00 0.00 50 1012.9
20260507205330 46 210 4.0 9.0 0.00 0.00 0.00 48 1013.0
20260507204844 47 217 5.0 8.0 0.00 0.00 0.00 48 1013.1
20260507204330 47 223 3.0 9.0 0.00 0.00 0.00 47 1012.9
20260507203818 48 232 4.0 9.0 0.00 0.00 0.00 46 1012.9
20260507203333 48 261 5.0 8.0 0.00 0.00 0.00 47 1013.0
20260507202830 47 213 4.0 10.0 0.00 0.00 0.00 49 1013.0
20260507202339 47 211 5.0 10.0 0.00 0.00 0.00 47 1013.2
20260507201844 47 216 4.0 8.0 0.00 0.00 0.00 47 1013.2
20260507201341 47 259 4.0 10.0 0.00 0.00 0.00 49 1013.3
20260507200828 47 199 6.0 10.0 0.00 0.00 0.00 46 1013.4
20260507200323 47 221 4.0 9.0 0.00 0.00 0.00 48 1013.4
20260507195833 48 209 5.0 9.0 0.00 0.00 0.00 48 1013.5
20260507195347 47 255 5.0 10.0 0.00 0.00 0.00 47 1013.4
20260507194821 47 233 4.0 8.0 0.00 0.00 0.00 46 1013.5
20260507194319 46 215 4.0 8.0 0.00 0.00 0.00 48 1013.6
20260507193814 46 250 4.0 9.0 0.00 0.00 0.00 51 1013.7
20260507193352 46 236 6.0 9.0 0.00 0.00 0.00 52 1013.8
20260507192824 45 232 5.0 9.0 0.00 0.00 0.00 54 1014.0
20260507192317 45 213 5.0 9.0 0.00 0.00 0.00 56 1014.1
20260507191836 45 214 6.0 9.0 0.00 0.00 0.00 55 1014.1
20260507191329 45 183 6.0 10.0 0.00 0.00 0.00 56 1014.1
20260507190842 46 224 5.0 10.0 0.00 0.00 0.00 58 1014.0
20260507190326 45 216 6.0 10.0 0.00 0.00 0.00 58 1014.2
20260507185821 45 194 6.0 10.0 0.00 0.00 0.00 58 1014.1
20260507185333 45 222 7.0 10.0 0.00 0.00 0.00 56 1014.1
20260507184825 45 219 6.0 11.0 0.00 0.00 0.00 54 1014.1
20260507184340 46 240 5.0 8.0 0.00 0.00 0.00 56 1014.1
20260507183852 45 226 5.0 8.0 0.00 0.00 0.00 50 1014.1
20260507183328 46 215 4.0 8.0 0.00 0.00 0.00 51 1014.1
20260507182824 46 232 4.0 8.0 0.00 0.00 0.00 51 1014.0
20260507182316 45 225 5.0 7.0 0.00 0.00 0.00 49 1014.0
20260507181830 45 205 3.0 6.0 0.00 0.00 0.00 50 1013.9
20260507181321 45 202 3.0 5.0 0.00 0.00 0.00 50 1014.0
20260507180856 45 234 3.0 5.0 0.00 0.00 0.00 51 1014.0
20260507180330 46 221 2.0 5.0 0.00 0.00 0.00 50 1014.0
20260507175825 46 198 3.0 6.0 0.00 0.00 0.00 50 1014.0
20260507175320 46 222 3.0 5.0 0.00 0.00 0.00 50 1014.1
20260507174837 47 257 3.0 5.0 0.00 0.00 0.00 52 1014.0
20260507174335 46 255 2.0 6.0 0.00 0.00 0.00 51 1014.1
20260507173819 46 254 3.0 6.0 0.00 0.00 0.00 53 1014.0
20260507173336 46 240 3.0 6.0 0.00 0.00 0.00 52 1014.2
20260507172828 47 266 3.0 4.0 0.00 0.00 0.00 52 1014.2
20260507172325 47 284 3.0 4.0 0.00 0.00 0.00 53 1014.3
20260507171839 46 303 3.0 6.0 0.00 0.00 0.00 53 1014.4
20260507171331 46 288 4.0 7.0 0.00 0.00 0.00 53 1014.6
20260507170820 47 274 4.0 7.0 0.00 0.00 0.00 52 1014.8
20260507170336 46 272 4.0 8.0 0.00 0.00 0.00 55 1014.9
20260507165827 46 272 4.0 8.0 0.00 0.00 0.00 56 1014.8
20260507165319 46 273 4.0 8.0 0.00 0.00 0.00 56 1015.0
20260507164853 46 273 5.0 8.0 0.00 0.00 0.00 56 1015.0
20260507164318 46 253 4.0 8.0 0.00 0.00 0.00 56 1015.0
20260507163815 46 268 5.0 8.0 0.00 0.00 0.00 56 1015.0
20260507163330 46 283 5.0 8.0 0.00 0.00 0.00 57 1014.9
20260507162844 46 272 4.0 8.0 0.00 0.00 0.00 57 1015.0
20260507162347 45 288 4.0 8.0 0.00 0.00 0.00 57 1015.1
20260507161840 45 258 5.0 8.0 0.00 0.00 0.00 56 1015.1
20260507161352 46 247 5.0 9.0 0.00 0.00 0.00 56 1015.2
20260507160831 46 261 5.0 9.0 0.00 0.00 0.00 57 1015.3
20260507160328 46 242 3.0 8.0 0.00 0.00 0.00 59 1015.3
20260507155821 46 294 3.0 8.0 0.00 0.00 0.00 58 1015.3
20260507155337 46 248 4.0 8.0 0.00 0.00 0.00 59 1015.3
20260507154828 45 262 3.0 8.0 0.00 0.00 0.00 59 1015.2
20260507154325 45 244 5.0 9.0 0.00 0.00 0.00 58 1015.3
20260507153900 45 269 5.0 9.0 0.00 0.00 0.00 57 1015.3